SCP
0 0 0 0 0 0 0 0 0 0 0 0 0 0 0 0 0 0 0 0 -0 -1 -0 -0 -0 -0 -0 -0 -0 -0 -0 -0 -0 -0 -0 -0 -0 -0 -0 0 0 0 0 0 0 0 0 0 0
0 0 0 0 0 0 0 0 0 0 0 0 0 0 0 0 0 0 0 -0 -0 -1 -0 -0 -0 -0 -0 -0 -0 -0 -0 -0 -0 -0 -0 -0 -0 -0 -0 -0 0 0 0 0 0 0 0 0 0
0 0 0 0 0 0 0 0 0 0 0 0 0 0 0 0 0 0 0 -0 -0 -0 -0 -0 -0 -0 -0 -0 -0 -0 -0 -0 -0 -0 -0 -0 -0 -0 -0 -0 0 0 0 0 0 0 0 0 0
0 0 0 0 0 0 0 0 0 0 0 0 0 0 0 1 0 0 -0 -0 -0 -0 -0 -0 -0 -0 -0 -0 -0 -0 -0 -0 -0 -0 -0 -0 -0 -0 -0 -0 0 0 0 0 0 0 0 0 0
0 0 0 0 0 0 0 0 0 0 0 0 0 0 0 1 0 0 -0 -0 -0 -0 -0 -0 -0 -0 -0 -0 -0 -0 -0 -0 -0 -0 -0 -0 -0 -0 0 0 0 0 0 0 0 0 0 0 0
0 0 0 0 0 0 0 0 0 0 0 0 0 0 0 0 0 -0 0 -0 -0 -0 -0 -0 -0 -0 -0 -0 -0 -0 -0 -0 -0 -0 -0 -0 -0 0 0 0 0 0 0 0 0 0 0 0 0
0 0 0 0 0 0 0 0 0 0 0 0 0 0 0 0 -0 0 0 0 0 -0 -0 -0 0 -0 -0 -0 -0 -0 -0 -0 -0 -0 -0 -0 0 0 0 0 0 0 0 0 0 0 0 0 0
0 0 0 0 0 0 0 0 0 0 0 1 1 0 1 0 0 0 0 0 0 0 0 -0 -0 -0 -0 -0 -0 -0 -0 -0 -0 -0 0 0 0 0 0 0 0 0 0 0 0 0 0 0 0
0 0 0 0 0 0 0 0 0 0 1 1 1 0 0 0 0 0 0 0 0 0 0 -0 -0 -0 -0 -0 -0 -0 -0 0 0 0 0 0 0 0 0 0 0 0 0 0 0 0 0 0 0
0 0 0 0 0 0 0 0 0 0 1 2 1 1 0 0 0 0 0 0 0 0 0 0 0 0 0 0 0 0 0 0 0 0 0 0 0 0 -0 0 0 0 0 0 0 0 0 0 0
0 0 0 0 0 0 0 0 0 0 1 1 1 1 1 0 0 0 0 0 0 0 0 0 0 0 0 0 0 0 0 0 0 0 0 0 0 -0 0 0 0 0 0 0 0 0 0 0 0
0 0 0 0 0 0 0 0 0 0 0 0 1 1 1 0 0 0 0 0 0 0 0 0 0 0 0 0 0 0 0 0 0 0 0 0 0 0 0 0 0 0 0 0 0 0 0 0 0
0 0 0 0 0 0 0 0 0 0 0 1 1 2 0 0 0 0 0 0 0 -0 0 0 0 0 0 0 0 0 0 0 0 0 0 0 0 0 0 0 0 0 0 0 0 0 0 0 0
0 0 0 0 0 0 0 0 0 0 0 2 1 1 1 1 0 0 0 0 0 -0 -0 0 0 0 0 0 0 0 0 0 0 0 0 0 0 0 0 0 0 0 0 0 0 0 0 0 0
0 0 0 0 0 0 0 0 0 0 0 1 1 1 1 2 1 0 0 0 0 0 0 0 0 0 -0 0 0 0 0 0 0 0 0 0 0 0 0 0 0 0 0 0 0 0 0 0 0
0 0 0 0 0 0 0 0 0 0 0 0 0 0 0 0 1 1 1 0 0 0 0 0 0 0 0 0 0 0 0 0 0 0 0 0 0 0 0 0 0 0 0 0 0 0 0 0 1
0 0 0 0 0 0 0 0 0 0 0 0 0 0 0 0 0 0 0 0 0 0 0 0 0 0 0 0 0 0 0 0 1 1 0 0 0 0 0 0 0 0 0 0 0 1 1 1 1
0 0 0 0 0 0 0 0 0 0 0 0 0 0 0 0 0 0 0 0 0 0 0 0 0 0 0 0 0 1 1 2 2 1 1 0 0 0 1 0 1 1 1 1 1 1 1 1 1
0 0 0 0 0 0 0 0 0 0 0 0 0 0 0 0 0 0 0 0 0 0 0 0 0 0 0 0 0 1 1 1 1 1 2 1 1 1 1 1 1 1 1 2 2 2 1 1 1
0 0 0 0 0 0 0 0 0 0 0 0 0 0 0 0 0 0 0 0 1 1 1 1 1 0 0 0 0 0 1 1 1 0 0 0 1 1 1 1 2 2 2 2 2 2 2 2 2
0 0 0 0 0 0 0 0 0 0 0 0 0 0 0 0 0 0 0 0 0 1 1 1 1 0 0 0 0 0 1 1 0 0 0 0 0 0 0 0 1 1 1 0 1 1 1 1 1
0 0 0 0 0 0 0 0 0 0 0 0 0 0 0 0 0 0 0 0 1 1 1 1 1 1 1 1 1 2 1 0 0 0 -0 0 0 0 0 0 0 0 0 0 1 1 1 1 1
0 0 0 0 0 0 0 0 0 0 0 0 0 0 0 0 0 0 0 0 1 1 1 1 1 1 1 1 0 0 0 0 -0 0 0 0 0 0 0 0 0 0 0 0 0 0 0 1 0
0 0 0 0 0 0 0 0 0 0 0 0 0 0 0 0 0 0 0 0 0 0 0 0 0 0 0 0 0 0 0 0 0 0 0 0 0 0 0 0 0 0 0 0 0 0 0 0 0
0 0 0 0 0 0 0 0 0 0 0 0 0 0 0 0 0 0 0 0 0 0 0 0 0 0 0 0 0 -0 -0 0 0 0 0 0 0 0 0 0 0 0 0 0 0 0 0 0 0
0 0 0 0 0 0 0 0 0 0 0 0 0 0 0 0 0 0 0 0 0 0 0 0 0 0 0 0 0 0 0 0 0 0 0 0 0 0 0 0 0 0 0 0 0 0 0 0 0
0 0 0 0 0 0 0 0 0 0 0 0 0 0 0 0 0 0 0 1 0 0 0 0 0 0 0 0 0 0 0 0 0 0 0 0 0 0 0 0 0 0 0 0 0 0 0 0 0
0 0 0 0 0 0 0 0 0 0 0 0 0 0 0 0 0 0 0 0 0 0 0 0 0 0 0 0 0 0 0 0 0 0 0 0 0 0 0 0 0 0 0 0 0 0 0 0 0
0 0 0 0 0 0 0 0 -0 0 0 0 0 0 0 0 0 0 0 0 0 0 0 0 0 0 0 0 0 0 0 0 0 0 0 0 0 0 0 0 0 0 0 0 0 0 0 0 0
0 -0 0 0 0 0 0 0 0 0 0 0 0 0 0 0 0 0 0 0 0 0 0 0 0 0 0 0 0 0 0 0 0 0 0 0 0 0 0 0 0 0 0 0 0 0 0 0 0
Wind_Speed_500mb
14 15 11 7 7 5 7 7 1 11 7 4 6 2 3 9 4 6 17 46 60 61 59 52 45 39 34 29 27 26 28 30 28 26 28 33 35 32 28 24 22 20 20 19 17 15 14 14 14
11 11 5 2 7 12 10 4 12 7 6 15 3 10 7 8 10 18 43 47 62 64 59 54 46 39 33 27 24 23 27 30 30 31 32 35 34 30 26 22 20 18 17 16 14 12 10 10 9
8 6 4 6 6 18 7 9 9 12 15 6 8 9 6 8 12 30 36 52 66 63 58 53 45 37 32 26 23 23 27 30 32 32 33 33 31 27 22 19 17 15 14 13 11 9 8 7 6
7 7 3 10 23 15 5 14 7 16 6 11 11 14 14 6 8 18 50 56 62 61 58 51 45 38 33 26 22 20 22 26 28 30 31 29 27 23 19 16 13 12 11 10 8 7 6 5 4
16 8 9 12 27 7 11 15 17 13 6 7 15 15 9 10 15 30 53 60 60 62 58 52 45 38 34 26 22 19 19 20 23 25 25 24 22 20 18 15 13 11 10 8 7 5 5 4 4
14 7 11 27 25 19 11 19 14 6 7 7 13 13 11 10 23 47 53 60 57 59 57 51 46 40 36 31 26 22 20 20 21 22 22 23 22 20 18 15 12 10 9 7 6 5 5 5 7
14 8 28 18 31 21 12 6 12 2 6 4 2 10 18 19 30 44 58 60 62 57 56 52 47 42 37 34 31 27 24 22 23 25 26 28 28 25 22 18 14 12 10 8 7 7 7 7 9
17 7 21 21 28 41 12 6 11 5 2 2 9 8 12 31 33 45 53 60 61 56 53 52 49 44 40 36 35 33 29 27 24 23 22 24 27 27 25 23 20 17 15 12 11 11 11 10 11
21 14 27 35 22 20 12 14 7 5 6 3 9 8 13 36 39 52 54 63 62 59 56 53 49 43 39 37 36 34 31 28 25 24 22 22 22 23 24 25 23 22 20 17 16 16 16 16 16
22 27 28 13 10 12 12 13 17 8 15 5 19 24 35 40 44 54 56 61 57 58 56 52 46 42 41 39 38 37 35 32 29 27 24 22 20 19 21 22 23 23 22 21 20 20 21 22 22
22 32 14 14 12 8 9 12 7 14 14 19 28 48 48 52 53 52 55 54 53 54 53 50 46 43 40 37 36 36 36 34 32 28 25 22 21 21 21 20 22 24 24 23 24 23 26 27 28
25 22 28 10 9 9 4 2 9 10 2 11 29 42 52 54 54 52 53 49 52 53 51 49 48 45 40 37 35 32 33 31 29 26 26 23 21 20 21 22 24 24 23 24 25 27 27 25 25
33 29 21 17 2 7 2 6 6 14 13 25 38 31 39 46 48 48 48 48 48 47 45 44 44 42 40 41 37 35 29 30 27 26 24 23 22 20 23 22 23 24 26 24 24 24 28 30 29
35 20 30 14 20 2 5 6 7 12 29 33 39 35 34 37 44 45 47 47 41 41 42 43 41 38 39 35 32 31 26 25 23 24 21 22 20 18 22 23 23 24 26 27 28 27 32 33 36
21 32 17 19 12 10 8 6 12 19 33 39 37 37 35 35 36 33 35 37 32 37 41 38 34 41 38 38 33 31 27 29 26 21 16 16 18 14 16 18 19 21 24 25 27 28 33 36 37
21 27 31 31 25 9 19 44 19 22 29 35 37 34 36 38 35 33 30 34 31 33 32 31 32 33 36 37 33 31 30 28 24 17 18 21 19 20 20 19 21 24 29 31 33 35 40 43 43
21 31 45 26 35 15 21 18 22 23 27 26 32 34 32 28 23 22 27 30 33 35 37 34 28 30 32 35 31 29 28 28 23 23 20 24 25 24 28 29 27 29 34 39 40 46 49 49 48
48 30 35 36 22 34 26 13 18 27 24 25 23 21 25 30 24 18 18 23 34 45 45 41 35 30 27 26 27 25 18 19 21 23 16 20 27 27 30 27 29 29 31 37 40 43 47 48 51
37 36 22 27 13 24 27 22 13 26 22 25 21 22 21 22 19 20 18 16 22 31 40 40 32 30 28 28 29 32 34 30 23 26 31 30 24 27 32 31 34 33 33 36 43 44 46 52 51
29 38 28 22 20 21 19 27 10 18 27 32 30 28 28 23 19 19 20 25 24 31 35 35 29 25 28 31 32 29 28 34 35 33 33 28 27 27 29 31 33 37 42 45 46 48 44 49 54
21 37 43 25 19 7 21 19 17 14 17 22 25 22 22 24 20 21 23 27 31 34 33 29 24 24 26 21 19 18 15 14 10 8 12 15 18 25 29 34 36 43 47 46 48 52 53 53 55
17 19 35 38 25 23 16 24 19 23 24 22 33 26 30 28 27 23 25 28 29 31 31 27 26 26 21 15 11 8 7 6 7 14 17 20 27 26 26 26 29 34 39 42 46 50 52 51 51
9 13 26 32 30 19 19 16 28 11 34 33 31 34 39 37 40 34 32 36 33 28 28 26 19 17 13 7 1 4 5 9 15 19 22 20 18 18 20 22 25 26 27 29 31 32 32 37 41
13 12 15 12 12 23 28 28 25 29 26 21 26 32 33 40 47 46 41 38 33 28 23 18 17 16 11 5 7 9 12 17 17 20 19 20 20 23 28 31 32 33 33 34 34 33 30 28 30
28 27 14 15 14 12 16 17 19 17 18 23 26 18 21 32 45 53 50 46 44 38 27 24 17 14 13 15 19 22 24 20 17 15 17 21 25 28 29 33 39 43 45 45 42 40 39 37 35
34 34 12 13 17 17 11 18 13 20 7 10 18 20 22 33 45 61 60 50 48 43 39 30 19 20 20 16 21 22 20 17 16 19 22 24 25 28 35 41 47 52 56 51 46 45 43 41 39
38 25 10 9 4 13 12 7 7 8 14 11 14 18 27 39 47 54 55 56 56 50 39 31 29 25 22 21 18 17 18 17 15 17 20 24 29 34 38 44 51 55 52 47 45 44 45 45 46
31 30 17 3 16 12 10 8 13 23 22 14 12 14 19 30 40 48 52 59 58 51 46 40 32 28 29 26 18 11 9 8 11 18 23 28 34 39 44 50 56 57 55 53 52 52 51 50 49
27 24 11 6 3 13 7 6 10 14 7 9 16 20 13 28 40 46 49 56 57 53 46 41 35 32 32 26 18 8 3 7 12 18 24 31 37 42 47 55 58 54 55 57 59 62 64 64 64
25 31 18 18 16 1 3 4 4 8 5 12 21 17 10 26 42 50 51 60 56 48 48 42 36 33 29 19 14 10 13 16 19 25 31 38 43 46 51 57 56 59 62 64 67 73 76 78 78
Wind_Direction_500mb
277 291 310 301 244 253 240 221 258 189 188 120 62 171 157 61 43 36 142 161 168 167 162 158 157 152 149 151 147 148 156 161 157 154 147 142 140 135 133 130 126 123 123 122 123 119 113 114 117
268 282 273 180 238 211 214 218 220 164 334 310 192 218 186 82 61 116 142 153 167 166 162 160 158 156 151 149 147 142 151 155 154 152 148 147 144 141 139 137 132 130 128 126 127 125 124 119 129
250 240 211 229 205 214 217 162 226 292 307 232 128 73 95 54 75 139 157 155 165 165 164 161 161 159 153 150 144 138 147 152 152 153 153 152 149 148 145 142 139 138 136 133 133 137 145 142 153
205 162 95 229 209 222 270 152 280 320 78 173 148 113 90 73 143 161 154 157 165 165 165 163 163 161 159 160 151 140 143 152 154 158 158 159 159 156 155 153 150 147 147 146 144 150 164 174 191
200 159 198 223 230 243 250 256 291 311 297 285 178 123 83 81 145 157 156 162 168 167 166 165 166 166 166 171 166 157 147 148 158 164 169 172 174 174 174 174 174 168 164 163 168 175 189 211 239
184 191 192 215 221 232 239 258 268 287 331 317 171 109 105 125 154 153 161 164 170 169 168 169 169 172 174 179 180 178 167 157 159 169 181 187 195 197 196 198 199 193 186 184 198 210 230 239 249
210 195 201 211 218 236 218 231 252 244 306 53 40 127 132 154 159 160 164 167 171 174 173 173 174 177 182 185 187 190 187 179 175 176 187 194 201 204 205 211 219 221 212 213 225 235 236 240 247
202 210 199 208 205 222 179 234 264 307 159 151 159 184 168 168 159 158 163 167 171 176 180 180 181 183 186 191 195 197 196 196 194 190 193 200 206 209 210 215 218 227 235 231 239 248 253 256 256
177 210 209 204 188 198 169 196 171 357 180 125 192 162 171 160 160 162 164 165 171 178 183 187 189 189 192 199 202 204 205 207 209 210 209 212 215 217 219 222 225 227 236 241 246 257 263 267 268
196 211 208 191 189 163 165 195 164 184 154 151 122 140 145 155 159 165 165 168 176 184 188 193 194 196 200 204 205 207 209 215 219 221 222 226 228 231 233 234 237 242 246 254 260 269 275 276 275
196 215 191 211 176 167 151 162 179 173 204 213 186 153 154 155 161 168 172 178 181 188 191 193 197 200 204 209 210 212 214 219 223 226 228 231 237 244 246 247 249 251 255 264 271 275 280 283 281
196 204 191 173 167 138 145 106 159 204 229 216 175 156 155 159 166 171 176 179 183 189 193 196 198 201 204 209 212 216 220 224 229 235 239 243 248 256 263 261 260 264 264 269 274 279 281 280 288
209 182 186 203 111 118 200 75 178 135 134 139 153 160 166 167 169 175 177 177 182 190 195 199 204 205 209 211 210 213 221 225 231 237 245 254 262 269 275 279 280 277 276 275 279 285 282 278 284
187 188 187 190 209 146 143 73 256 137 145 147 159 171 175 174 175 176 179 179 186 192 198 203 206 210 218 223 219 220 227 234 234 240 248 258 268 278 284 287 289 291 289 284 283 284 281 281 283
176 198 176 192 180 196 145 209 217 143 154 154 165 172 177 176 180 193 194 195 199 203 204 209 216 214 220 225 224 226 227 235 236 247 269 279 277 283 289 297 303 309 308 306 300 292 290 290 291
172 200 202 190 184 191 190 203 200 161 149 165 169 177 184 193 197 201 202 205 203 203 203 202 219 222 228 229 231 236 241 251 249 246 262 275 277 271 276 285 292 292 297 298 298 299 294 293 294
188 198 205 185 202 168 201 190 207 173 159 163 165 171 177 181 197 211 218 218 216 209 208 210 221 225 231 232 235 244 251 253 247 260 281 288 286 291 289 287 287 286 287 290 294 295 295 295 288
188 193 196 197 184 202 189 189 185 176 176 196 187 189 186 193 197 224 240 225 218 218 223 229 236 236 237 233 230 241 256 263 245 250 277 300 279 272 278 285 289 290 291 292 295 294 294 293 290
201 196 189 198 187 183 194 187 205 173 178 183 194 193 211 208 203 206 218 230 205 207 216 225 226 235 239 236 244 246 260 250 247 269 281 282 283 266 274 279 281 285 286 287 285 287 292 292 293
180 192 194 179 160 188 175 187 205 195 191 194 193 196 208 216 203 208 212 221 220 209 208 214 219 220 232 234 255 252 256 261 277 293 296 292 287 276 280 284 287 286 287 284 286 289 291 288 288
183 194 192 166 163 104 153 190 201 222 238 215 202 216 223 223 212 215 230 224 229 226 218 218 215 225 234 245 256 257 250 244 260 311 326 329 311 301 295 290 282 284 287 286 284 283 282 282 282
141 189 181 194 177 192 214 209 213 194 204 226 221 224 226 229 237 229 234 229 232 229 224 225 226 230 235 235 233 223 215 239 62 38 13 359 341 328 315 305 298 292 292 290 287 284 280 279 281
145 167 159 184 198 193 191 225 198 204 221 215 218 220 223 221 219 220 225 226 230 227 220 226 228 217 200 182 98 330 346 52 42 31 14 20 24 20 14 3 355 345 335 318 307 299 294 288 284
173 128 89 109 150 200 203 220 212 213 214 214 225 226 221 222 217 214 213 218 225 213 206 194 177 154 132 82 63 46 49 62 56 50 38 34 20 12 7 1 353 345 338 334 333 329 321 313 300
187 178 153 177 195 196 179 199 235 203 206 224 223 230 226 219 210 213 210 208 206 206 193 173 166 142 100 89 87 76 72 68 52 44 30 19 17 16 8 0 354 347 336 325 319 316 314 311 306
180 183 178 178 182 167 160 220 212 224 186 227 249 247 231 214 203 204 204 203 197 188 175 169 161 141 123 106 94 76 52 41 53 56 37 23 14 4 357 350 346 341 339 329 314 308 305 301 298
187 198 148 106 97 171 188 191 233 210 220 230 226 230 226 213 204 198 195 196 187 177 171 165 150 139 130 130 109 80 57 40 31 11 4 360 353 348 345 342 339 336 332 326 317 310 306 303 301
179 183 194 200 173 177 172 231 235 199 212 243 264 253 226 210 198 188 185 182 176 171 163 155 152 142 146 147 134 110 72 43 354 341 337 336 334 333 332 333 332 330 327 328 328 327 321 314 306
156 174 189 179 269 192 199 200 214 195 176 269 294 300 244 198 189 180 173 172 170 164 157 161 160 160 166 170 168 166 277 286 298 310 314 315 316 316 320 324 325 323 322 320 320 319 318 314 309
173 182 173 188 193 219 1 244 143 160 276 286 290 294 229 188 177 169 165 167 162 164 165 167 172 175 181 187 200 226 256 273 287 298 302 304 305 310 315 319 319 317 316 315 313 312 310 308 304
Wind_Speed_850mb
14 15 11 7 7 5 7 7 1 11 7 4 6 2 3 9 4 6 17 46 60 61 59 52 45 39 34 29 27 26 28 30 28 26 28 33 35 32 28 24 22 20 20 19 17 15 14 14 14
11 11 5 2 7 12 10 4 12 7 6 15 3 10 7 8 10 18 43 47 62 64 59 54 46 39 33 27 24 23 27 30 30 31 32 35 34 30 26 22 20 18 17 16 14 12 10 10 9
8 6 4 6 6 18 7 9 9 12 15 6 8 9 6 8 12 30 36 52 66 63 58 53 45 37 32 26 23 23 27 30 32 32 33 33 31 27 22 19 17 15 14 13 11 9 8 7 6
7 7 3 10 23 15 5 14 7 16 6 11 11 14 14 6 8 18 50 56 62 61 58 51 45 38 33 26 22 20 22 26 28 30 31 29 27 23 19 16 13 12 11 10 8 7 6 5 4
16 8 9 12 27 7 11 15 17 13 6 7 15 15 9 10 15 30 53 60 60 62 58 52 45 38 34 26 22 19 19 20 23 25 25 24 22 20 18 15 13 11 10 8 7 5 5 4 4
14 7 11 27 25 19 11 19 14 6 7 7 13 13 11 10 23 47 53 60 57 59 57 51 46 40 36 31 26 22 20 20 21 22 22 23 22 20 18 15 12 10 9 7 6 5 5 5 7
14 8 28 18 31 21 12 6 12 2 6 4 2 10 18 19 30 44 58 60 62 57 56 52 47 42 37 34 31 27 24 22 23 25 26 28 28 25 22 18 14 12 10 8 7 7 7 7 9
17 7 21 21 28 41 12 6 11 5 2 2 9 8 12 31 33 45 53 60 61 56 53 52 49 44 40 36 35 33 29 27 24 23 22 24 27 27 25 23 20 17 15 12 11 11 11 10 11
21 14 27 35 22 20 12 14 7 5 6 3 9 8 13 36 39 52 54 63 62 59 56 53 49 43 39 37 36 34 31 28 25 24 22 22 22 23 24 25 23 22 20 17 16 16 16 16 16
22 27 28 13 10 12 12 13 17 8 15 5 19 24 35 40 44 54 56 61 57 58 56 52 46 42 41 39 38 37 35 32 29 27 24 22 20 19 21 22 23 23 22 21 20 20 21 22 22
22 32 14 14 12 8 9 12 7 14 14 19 28 48 48 52 53 52 55 54 53 54 53 50 46 43 40 37 36 36 36 34 32 28 25 22 21 21 21 20 22 24 24 23 24 23 26 27 28
25 22 28 10 9 9 4 2 9 10 2 11 29 42 52 54 54 52 53 49 52 53 51 49 48 45 40 37 35 32 33 31 29 26 26 23 21 20 21 22 24 24 23 24 25 27 27 25 25
33 29 21 17 2 7 2 6 6 14 13 25 38 31 39 46 48 48 48 48 48 47 45 44 44 42 40 41 37 35 29 30 27 26 24 23 22 20 23 22 23 24 26 24 24 24 28 30 29
35 20 30 14 20 2 5 6 7 12 29 33 39 35 34 37 44 45 47 47 41 41 42 43 41 38 39 35 32 31 26 25 23 24 21 22 20 18 22 23 23 24 26 27 28 27 32 33 36
21 32 17 19 12 10 8 6 12 19 33 39 37 37 35 35 36 33 35 37 32 37 41 38 34 41 38 38 33 31 27 29 26 21 16 16 18 14 16 18 19 21 24 25 27 28 33 36 37
21 27 31 31 25 9 19 44 19 22 29 35 37 34 36 38 35 33 30 34 31 33 32 31 32 33 36 37 33 31 30 28 24 17 18 21 19 20 20 19 21 24 29 31 33 35 40 43 43
21 31 45 26 35 15 21 18 22 23 27 26 32 34 32 28 23 22 27 30 33 35 37 34 28 30 32 35 31 29 28 28 23 23 20 24 25 24 28 29 27 29 34 39 40 46 49 49 48
48 30 35 36 22 34 26 13 18 27 24 25 23 21 25 30 24 18 18 23 34 45 45 41 35 30 27 26 27 25 18 19 21 23 16 20 27 27 30 27 29 29 31 37 40 43 47 48 51
37 36 22 27 13 24 27 22 13 26 22 25 21 22 21 22 19 20 18 16 22 31 40 40 32 30 28 28 29 32 34 30 23 26 31 30 24 27 32 31 34 33 33 36 43 44 46 52 51
29 38 28 22 20 21 19 27 10 18 27 32 30 28 28 23 19 19 20 25 24 31 35 35 29 25 28 31 32 29 28 34 35 33 33 28 27 27 29 31 33 37 42 45 46 48 44 49 54
21 37 43 25 19 7 21 19 17 14 17 22 25 22 22 24 20 21 23 27 31 34 33 29 24 24 26 21 19 18 15 14 10 8 12 15 18 25 29 34 36 43 47 46 48 52 53 53 55
17 19 35 38 25 23 16 24 19 23 24 22 33 26 30 28 27 23 25 28 29 31 31 27 26 26 21 15 11 8 7 6 7 14 17 20 27 26 26 26 29 34 39 42 46 50 52 51 51
9 13 26 32 30 19 19 16 28 11 34 33 31 34 39 37 40 34 32 36 33 28 28 26 19 17 13 7 1 4 5 9 15 19 22 20 18 18 20 22 25 26 27 29 31 32 32 37 41
13 12 15 12 12 23 28 28 25 29 26 21 26 32 33 40 47 46 41 38 33 28 23 18 17 16 11 5 7 9 12 17 17 20 19 20 20 23 28 31 32 33 33 34 34 33 30 28 30
28 27 14 15 14 12 16 17 19 17 18 23 26 18 21 32 45 53 50 46 44 38 27 24 17 14 13 15 19 22 24 20 17 15 17 21 25 28 29 33 39 43 45 45 42 40 39 37 35
34 34 12 13 17 17 11 18 13 20 7 10 18 20 22 33 45 61 60 50 48 43 39 30 19 20 20 16 21 22 20 17 16 19 22 24 25 28 35 41 47 52 56 51 46 45 43 41 39
38 25 10 9 4 13 12 7 7 8 14 11 14 18 27 39 47 54 55 56 56 50 39 31 29 25 22 21 18 17 18 17 15 17 20 24 29 34 38 44 51 55 52 47 45 44 45 45 46
31 30 17 3 16 12 10 8 13 23 22 14 12 14 19 30 40 48 52 59 58 51 46 40 32 28 29 26 18 11 9 8 11 18 23 28 34 39 44 50 56 57 55 53 52 52 51 50 49
27 24 11 6 3 13 7 6 10 14 7 9 16 20 13 28 40 46 49 56 57 53 46 41 35 32 32 26 18 8 3 7 12 18 24 31 37 42 47 55 58 54 55 57 59 62 64 64 64
25 31 18 18 16 1 3 4 4 8 5 12 21 17 10 26 42 50 51 60 56 48 48 42 36 33 29 19 14 10 13 16 19 25 31 38 43 46 51 57 56 59 62 64 67 73 76 78 78
Wind_Direction_850mb
277 291 310 301 244 253 240 221 258 189 188 120 62 171 157 61 43 36 142 161 168 167 162 158 157 152 149 151 147 148 156 161 157 154 147 142 140 135 133 130 126 123 123 122 123 119 113 114 117
268 282 273 180 238 211 214 218 220 164 334 310 192 218 186 82 61 116 142 153 167 166 162 160 158 156 151 149 147 142 151 155 154 152 148 147 144 141 139 137 132 130 128 126 127 125 124 119 129
250 240 211 229 205 214 217 162 226 292 307 232 128 73 95 54 75 139 157 155 165 165 164 161 161 159 153 150 144 138 147 152 152 153 153 152 149 148 145 142 139 138 136 133 133 137 145 142 153
205 162 95 229 209 222 270 152 280 320 78 173 148 113 90 73 143 161 154 157 165 165 165 163 163 161 159 160 151 140 143 152 154 158 158 159 159 156 155 153 150 147 147 146 144 150 164 174 191
200 159 198 223 230 243 250 256 291 311 297 285 178 123 83 81 145 157 156 162 168 167 166 165 166 166 166 171 166 157 147 148 158 164 169 172 174 174 174 174 174 168 164 163 168 175 189 211 239
184 191 192 215 221 232 239 258 268 287 331 317 171 109 105 125 154 153 161 164 170 169 168 169 169 172 174 179 180 178 167 157 159 169 181 187 195 197 196 198 199 193 186 184 198 210 230 239 249
210 195 201 211 218 236 218 231 252 244 306 53 40 127 132 154 159 160 164 167 171 174 173 173 174 177 182 185 187 190 187 179 175 176 187 194 201 204 205 211 219 221 212 213 225 235 236 240 247
202 210 199 208 205 222 179 234 264 307 159 151 159 184 168 168 159 158 163 167 171 176 180 180 181 183 186 191 195 197 196 196 194 190 193 200 206 209 210 215 218 227 235 231 239 248 253 256 256
177 210 209 204 188 198 169 196 171 357 180 125 192 162 171 160 160 162 164 165 171 178 183 187 189 189 192 199 202 204 205 207 209 210 209 212 215 217 219 222 225 227 236 241 246 257 263 267 268
196 211 208 191 189 163 165 195 164 184 154 151 122 140 145 155 159 165 165 168 176 184 188 193 194 196 200 204 205 207 209 215 219 221 222 226 228 231 233 234 237 242 246 254 260 269 275 276 275
196 215 191 211 176 167 151 162 179 173 204 213 186 153 154 155 161 168 172 178 181 188 191 193 197 200 204 209 210 212 214 219 223 226 228 231 237 244 246 247 249 251 255 264 271 275 280 283 281
196 204 191 173 167 138 145 106 159 204 229 216 175 156 155 159 166 171 176 179 183 189 193 196 198 201 204 209 212 216 220 224 229 235 239 243 248 256 263 261 260 264 264 269 274 279 281 280 288
209 182 186 203 111 118 200 75 178 135 134 139 153 160 166 167 169 175 177 177 182 190 195 199 204 205 209 211 210 213 221 225 231 237 245 254 262 269 275 279 280 277 276 275 279 285 282 278 284
187 188 187 190 209 146 143 73 256 137 145 147 159 171 175 174 175 176 179 179 186 192 198 203 206 210 218 223 219 220 227 234 234 240 248 258 268 278 284 287 289 291 289 284 283 284 281 281 283
176 198 176 192 180 196 145 209 217 143 154 154 165 172 177 176 180 193 194 195 199 203 204 209 216 214 220 225 224 226 227 235 236 247 269 279 277 283 289 297 303 309 308 306 300 292 290 290 291
172 200 202 190 184 191 190 203 200 161 149 165 169 177 184 193 197 201 202 205 203 203 203 202 219 222 228 229 231 236 241 251 249 246 262 275 277 271 276 285 292 292 297 298 298 299 294 293 294
188 198 205 185 202 168 201 190 207 173 159 163 165 171 177 181 197 211 218 218 216 209 208 210 221 225 231 232 235 244 251 253 247 260 281 288 286 291 289 287 287 286 287 290 294 295 295 295 288
188 193 196 197 184 202 189 189 185 176 176 196 187 189 186 193 197 224 240 225 218 218 223 229 236 236 237 233 230 241 256 263 245 250 277 300 279 272 278 285 289 290 291 292 295 294 294 293 290
201 196 189 198 187 183 194 187 205 173 178 183 194 193 211 208 203 206 218 230 205 207 216 225 226 235 239 236 244 246 260 250 247 269 281 282 283 266 274 279 281 285 286 287 285 287 292 292 293
180 192 194 179 160 188 175 187 205 195 191 194 193 196 208 216 203 208 212 221 220 209 208 214 219 220 232 234 255 252 256 261 277 293 296 292 287 276 280 284 287 286 287 284 286 289 291 288 288
183 194 192 166 163 104 153 190 201 222 238 215 202 216 223 223 212 215 230 224 229 226 218 218 215 225 234 245 256 257 250 244 260 311 326 329 311 301 295 290 282 284 287 286 284 283 282 282 282
141 189 181 194 177 192 214 209 213 194 204 226 221 224 226 229 237 229 234 229 232 229 224 225 226 230 235 235 233 223 215 239 62 38 13 359 341 328 315 305 298 292 292 290 287 284 280 279 281
145 167 159 184 198 193 191 225 198 204 221 215 218 220 223 221 219 220 225 226 230 227 220 226 228 217 200 182 98 330 346 52 42 31 14 20 24 20 14 3 355 345 335 318 307 299 294 288 284
173 128 89 109 150 200 203 220 212 213 214 214 225 226 221 222 217 214 213 218 225 213 206 194 177 154 132 82 63 46 49 62 56 50 38 34 20 12 7 1 353 345 338 334 333 329 321 313 300
187 178 153 177 195 196 179 199 235 203 206 224 223 230 226 219 210 213 210 208 206 206 193 173 166 142 100 89 87 76 72 68 52 44 30 19 17 16 8 0 354 347 336 325 319 316 314 311 306
180 183 178 178 182 167 160 220 212 224 186 227 249 247 231 214 203 204 204 203 197 188 175 169 161 141 123 106 94 76 52 41 53 56 37 23 14 4 357 350 346 341 339 329 314 308 305 301 298
187 198 148 106 97 171 188 191 233 210 220 230 226 230 226 213 204 198 195 196 187 177 171 165 150 139 130 130 109 80 57 40 31 11 4 360 353 348 345 342 339 336 332 326 317 310 306 303 301
179 183 194 200 173 177 172 231 235 199 212 243 264 253 226 210 198 188 185 182 176 171 163 155 152 142 146 147 134 110 72 43 354 341 337 336 334 333 332 333 332 330 327 328 328 327 321 314 306
156 174 189 179 269 192 199 200 214 195 176 269 294 300 244 198 189 180 173 172 170 164 157 161 160 160 166 170 168 166 277 286 298 310 314 315 316 316 320 324 325 323 322 320 320 319 318 314 309
173 182 173 188 193 219 1 244 143 160 276 286 290 294 229 188 177 169 165 167 162 164 165 167 172 175 181 187 200 226 256 273 287 298 302 304 305 310 315 319 319 317 316 315 313 312 310 308 304